Weather History for Baudette, MN

Change the Weather History Date:

Thursday, February 14, 2013

  Actual Average Record
Temperature  
Mean Temperature 9 °F -  
Max Temperature 17 °F 23 °F 48 °F (1983)
Min Temperature 1 °F -3 °F -35 °F (1974)
Degree Days  
Heating Degree Days 56    
Moisture  
Dew Point 2 °F    
Average Humidity 77    
Maximum Humidity 92    
Minimum Humidity 51    
Precipitation  
Precipitation 0.00 in - - ()
Sea Level Pressure  
Sea Level Pressure 30.04 in    
Wind  
Wind Speed 9 mph (NNW)    
Max Wind Speed 16 mph    
Max Gust Speed 24 mph    
Visibility 10 miles    
Events      
Averages and records for this station are not official NWS values.
T = Trace of Precipitation, MM = Missing Value Source: NWS Daily Summary

Daily Weather History Graph

Daily Weather History Graph

Search for Another Location

Airport:

Trip Planner

Search our weather history database for the weather conditions in past years. The results will help you decide how hot, cold, wet, or windy it might be!

Date:

Astronomy

Feb. 14, 2013 Rise Set
Actual Time 7:27 AM CST 5:38 PM CST
Civil Twilight 6:54 AM CST 6:11 PM CST
Nautical Twilight 6:18 AM CST 6:47 PM CST
Astronomical Twilight 5:41 AM CST 7:24 PM CST
Moon 9:01 AM CST (2/14) 11:13 PM CST (2/14)
Length of Visible Light 11h 16m
Length of Day
10h 10m
Waxing Crescent, 22% of the Moon is Illuminated
Feb 14
Waxing Crescent
Feb 17
First Quarter
Feb 25
Full
Mar 4
Last Quarter
Mar 11
New

Hourly Weather History & Observations

Time (CST) Temp. Windchill Dew Point Humidity Pressure Visibility Wind Dir Wind Speed Gust Speed Precip Events Conditions
12:53 AM 12.9 °F 0.7 °F 8.1 °F 81% 29.81 in 10.0 mi NNW 9.2 mph - N/A   Clear
1:53 AM 10.0 °F -2.9 °F 5.0 °F 80% 29.83 in 10.0 mi NNW 9.2 mph - N/A   Clear
2:53 AM 8.1 °F -4.3 °F 3.9 °F 83% 29.86 in 10.0 mi NNW 8.1 mph - N/A   Clear
3:53 AM 5.0 °F -10.0 °F 1.9 °F 87% 29.88 in 10.0 mi North 10.4 mph - N/A   Clear
4:22 AM 5.0 °F -8.1 °F 3.2 °F 92% 29.82 in 10.0 mi North 8.1 mph - N/A   Scattered Clouds
4:30 AM 6.8 °F -5.9 °F 3.2 °F 85% 29.83 in 10.0 mi North 8.1 mph - N/A   Mostly Cloudy
4:53 AM 7.0 °F -4.5 °F 3.9 °F 87% 29.91 in 10.0 mi NNW 6.9 mph - N/A   Overcast
5:00 AM 6.8 °F -4.8 °F 3.2 °F 85% 29.85 in 10.0 mi NNW 6.9 mph - N/A   Overcast
5:50 AM 3.2 °F -9.1 °F 1.4 °F 92% 29.87 in 10.0 mi NNW 6.9 mph - N/A   Scattered Clouds
5:53 AM 3.9 °F -9.4 °F 1.9 °F 91% 29.95 in 10.0 mi NNW 8.1 mph - N/A   Partly Cloudy
6:53 AM 3.0 °F -11.5 °F -0.0 °F 87% 29.98 in 10.0 mi NNW 9.2 mph - N/A   Clear
7:53 AM 1.9 °F -11.8 °F -0.9 °F 88% 30.02 in 10.0 mi North 8.1 mph - N/A   Scattered Clouds
8:53 AM 3.9 °F -9.4 °F 1.0 °F 88% 30.06 in 10.0 mi NNW 8.1 mph - N/A   Clear
9:53 AM 6.1 °F -8.7 °F 1.9 °F 83% 30.09 in 10.0 mi NNW 10.4 mph - N/A   Mostly Cloudy
10:53 AM 8.1 °F -6.2 °F 1.9 °F 76% 30.10 in 10.0 mi NNW 10.4 mph - N/A   Clear
11:53 AM 10.0 °F -3.7 °F 3.0 °F 73% 30.11 in 10.0 mi NNW 10.4 mph - N/A   Mostly Cloudy
12:53 PM 12.0 °F -2.7 °F 3.0 °F 67% 30.12 in 10.0 mi NNW 12.7 mph - N/A   Clear
1:53 PM 15.1 °F 2.5 °F -0.0 °F 51% 30.12 in 10.0 mi NW 10.4 mph - N/A   Clear
2:53 PM 17.1 °F 5.8 °F 3.0 °F 54% 30.13 in 10.0 mi NW 9.2 mph - N/A   Clear
3:53 PM 17.1 °F 4.3 °F 1.9 °F 52% 30.14 in 10.0 mi NW 11.5 mph - N/A   Partly Cloudy
4:53 PM 17.1 °F 8.7 °F 3.0 °F 54% 30.16 in 10.0 mi Variable 5.8 mph - N/A   Clear
5:53 PM 14.0 °F 5.1 °F 3.0 °F 62% 30.17 in 10.0 mi WNW 5.8 mph - N/A   Mostly Cloudy
6:53 PM 10.9 °F 1.4 °F 1.9 °F 67% 30.19 in 10.0 mi WNW 5.8 mph - N/A   Scattered Clouds
7:53 PM 10.9 °F -2.6 °F 1.0 °F 64% 30.21 in 10.0 mi NW 10.4 mph - N/A   Overcast
8:53 PM 9.0 °F -8.5 °F 1.9 °F 73% 30.22 in 10.0 mi NW 16.1 mph 24.2 mph N/A   Overcast
9:53 PM 5.0 °F -10.0 °F -0.0 °F 80% 30.24 in 10.0 mi NW 10.4 mph - N/A   Clear
10:53 PM 3.0 °F -11.5 °F -0.9 °F 84% 30.25 in 10.0 mi NW 9.2 mph - N/A   Clear
11:53 PM 1.0 °F -10.3 °F -2.0 °F 87% 30.25 in 10.0 mi WNW 5.8 mph - N/A   Clear